[[{"header":{"parameterUnit":"m.s-1","parameterCategory":1,"la1":30.2991,"la2":30.254,"lo1":-89.0895,"lo2":-89.0444,"dy":0.0017,"dx":0.0017,"nx":28,"ny":28,"refTime":"2024-06-27T03:00:00:Z","depth":0,"parameterNumber":2,"parameterNumberName":"U-component_of_WINDS"},"data":[0,0,0,0,0,0,0,0,0,0,0,0,0,0,0,0,0,0,0,0,0,0,0,0,0,0,0,0,0,0,0,0,0,0,0,0,0,0,0,0,0,0,0,0,0,0,0,0,0,0,0,0,0,0,0,0,0,0,4.2524,4.2525,0,4.266,4.2662,4.2663,4.2637,4.2634,4.2632,4.2629,4.2772,4.2778,4.2784,0,0,0,0,0,0,0,0,0,0,0,0,0,4.2243,4.2249,4.2523,4.2525,4.2527,4.266,4.2662,4.2664,4.2637,4.2634,4.2631,4.2628,4.277,4.2778,4.2785,0,0,0,0,0,0,0,0,0,0,0,0,0,4.2371,4.225,4.2523,4.253,4.2531,4.266,4.2662,4.2664,4.2638,4.2634,4.263,4.2627,4.2768,4.2777,4.2786,4.2917,0,0,4.2814,4.2818,0,0,0,0,0,0,0,0,4.2364,4.2381,4.2527,4.2529,4.2532,4.2628,4.2615,4.2749,4.2639,4.2598,4.2629,4.2625,4.2727,4.274,4.2774,4.2924,4.293,4.2815,4.282,4.2824,4.2827,0,0,0,0,0,0,0,4.2355,4.2375,4.2578,4.2529,4.2532,4.2527,4.2541,4.2641,4.2682,4.2601,4.2599,4.2616,4.2728,4.2765,4.2777,4.2932,4.2814,4.2823,4.2828,4.2832,4.3198,4.3202,0,0,0,0,0,0,4.2344,4.2368,4.2573,4.2582,4.2437,4.2535,4.2551,4.2601,4.2681,4.2689,4.2619,4.2614,4.2751,4.2766,4.2782,4.294,4.2824,4.2833,4.2838,4.3194,4.3199,4.3204,0,0,0,0,0,0,4.2338,4.2362,4.2568,4.2475,4.25,4.2544,4.26,4.2605,4.2642,4.2694,4.2702,4.2648,4.2749,4.2769,4.2884,4.2945,4.2837,4.2845,4.3189,4.3196,4.3202,4.3259,0,0,0,0,0,0,4.233,4.236,4.2409,4.2476,4.2505,4.2666,4.2604,4.2611,4.2657,4.2652,4.2724,4.2732,4.2747,4.287,4.2893,4.2956,4.2852,4.3184,4.3192,4.32,4.3252,4.3267,4.3279,0,0,0,0,0,4.232,4.242,4.2412,4.2437,4.2567,4.267,4.2687,4.2701,4.2662,4.2713,4.2747,4.273,4.2935,4.2882,4.2907,4.2974,4.318,4.319,4.3199,4.3246,4.3264,4.3279,0,0,0,0,0,0,4.236,4.2429,4.242,4.2545,4.2602,4.2665,4.2728,4.272,4.2789,4.2782,4.2798,4.2814,4.2931,4.2965,4.2904,4.3106,4.3052,4.3067,4.3079,4.3097,4.311,4.3099,4.286,0,0,0,0,0,4.2383,4.2459,4.2516,4.2621,4.265,4.2685,4.273,4.2736,4.2796,4.282,4.2862,4.2922,4.3,4.305,4.3125,4.3258,4.3273,4.3317,4.333,4.3341,4.3353,4.3427,4.3447,4.3235,4.3235,4.3235,0,0,4.2432,4.2479,4.2526,4.263,4.2675,4.2754,4.2705,4.2791,4.285,4.2833,4.2943,4.2977,4.3045,4.317,4.3227,4.3201,4.3416,4.3353,4.3362,4.3368,4.3439,4.3459,4.3476,4.3242,4.324,4.3239,0,0,4.2561,4.2605,4.2696,4.2743,4.2811,4.2834,4.2856,4.2922,4.2943,4.3055,4.3044,4.3116,4.325,4.3299,4.3341,4.3493,4.348,4.3517,4.3587,4.3659,4.3675,4.369,4.3744,4.3763,4.3529,4.353,4.353,0,4.2613,4.2731,4.2745,4.2833,4.2879,4.2868,4.2962,4.3007,4.3096,4.3129,4.31,4.3268,4.3313,4.3449,4.3486,4.3521,4.3548,4.3507,4.3672,4.3687,4.3701,4.3752,4.3772,4.3533,4.3533,4.3533,4.3532,0,4.2792,4.2874,4.2941,4.3027,4.3082,4.3172,4.3201,4.3255,4.3259,4.3285,4.34,4.3454,4.3539,4.3573,4.3577,4.3711,4.3692,4.3668,4.3613,4.3725,4.3773,4.3793,4.3539,4.3538,4.3536,4.3535,0,0,4.2946,4.3041,4.3065,4.3105,4.3181,4.3245,4.3337,4.342,4.3466,4.353,4.3607,4.3722,4.37,4.3748,4.3758,4.3821,4.3937,4.3789,4.379,4.3813,4.4088,4.4105,4.4127,4.3931,4.3934,4.3938,4.4082,0,4.3082,4.3241,4.3258,4.34,4.3477,4.3469,4.3549,4.3605,4.3634,4.3705,4.3737,4.3818,4.3782,4.3812,4.3874,4.391,4.3993,4.39,4.4003,4.4006,4.3984,4.4153,4.4171,4.4304,4.4101,4.4105,4.4107,0,4.3259,4.3327,4.3478,4.3544,4.3577,4.3648,4.3727,4.3795,4.386,4.3876,4.3931,4.3934,4.4029,4.3974,4.4107,4.4043,4.4087,4.4112,4.4117,4.4126,4.4061,4.4165,4.4347,4.4367,4.4137,4.4135,4.4132,0,4.3356,4.3486,4.3592,4.3627,4.3708,4.3758,4.3794,4.3855,4.3905,4.3975,4.4007,4.4088,4.4131,4.4195,4.4219,4.4176,4.4351,4.4297,4.4368,4.4367,4.4402,4.4399,4.4593,4.4434,4.4434,4.4433,4.4433,0,4.3504,4.3596,4.3637,4.3702,4.3806,4.3826,4.3929,4.3963,4.4018,4.4091,4.4091,4.4159,4.4189,4.4263,4.4283,4.439,4.4411,4.4427,4.4431,4.4426,4.4424,4.4453,4.4444,4.4439,4.4438,4.4437,4.4436,0,4.3628,4.3659,4.3775,4.3842,4.3862,4.3935,4.3994,4.4058,4.4087,4.4179,4.4203,4.4248,4.4336,4.4367,4.4474,4.4488,4.4612,4.4609,4.4589,4.459,4.4658,4.465,4.4876,4.4906,4.4728,4.473,4.4731,0,4.3718,4.3789,4.3865,4.3913,4.3951,4.403,4.4081,4.4105,4.4158,4.4238,4.4293,4.438,4.4451,4.4592,4.4635,4.4717,4.4715,4.4789,4.4727,4.4721,4.4715,4.471,4.4717,4.4799,4.4801,4.4803,4.4804,0,4.3877,4.3889,4.3962,4.4041,4.4102,4.4165,4.4227,4.4267,4.4301,4.4361,4.445,4.4505,4.4615,4.4701,4.4786,4.4825,4.4821,4.4823,4.4844,4.4838,4.4823,4.4831,4.4618,4.4817,4.4816,4.4815,4.4814,4.4814,4.3986,4.4049,4.4112,4.4194,4.4243,4.4301,4.4365,4.4402,4.4477,4.4567,4.4577,4.4673,4.4739,4.4852,4.4895,4.4972,4.4952,4.4982,4.4989,4.4995,4.5,4.4813,4.4988,4.4987,4.4987,4.4987,4.4987,0,4.4143,4.4184,4.4259,4.4345,4.441,4.4401,4.447,4.4525,4.4609,4.467,4.474,4.4843,4.4928,4.4979,4.5065,4.5116,4.5116,4.5138,4.5133,4.5142,4.5013,4.4986,4.5136,4.5136,4.5136,4.5136,4.5136,4.5136,4.4232,4.4337,4.4358,4.4489,4.453,4.4623,4.4663,4.4718,4.4766,4.4882,4.4952,4.4985,4.5043,4.5133,4.5211,4.5224,4.5255,4.5278,4.5289,4.5167,4.5151,4.5136,4.5111,4.5285,4.5285,4.5411,4.5412,4.5413]},{"header":{"parameterUnit":"m.s-1","parameterCategory":1,"la1":30.2991,"la2":30.254,"lo1":-89.0895,"lo2":-89.0444,"dy":0.0017,"dx":0.0017,"nx":28,"ny":28,"refTime":"2024-06-27T03:00:00:Z","depth":0,"parameterNumber":3,"parameterNumberName":"V-component_of_WINDS"},"data":[0,0,0,0,0,0,0,0,0,0,0,0,0,0,0,0,0,0,0,0,0,0,0,0,0,0,0,0,0,0,0,0,0,0,0,0,0,0,0,0,0,0,0,0,0,0,0,0,0,0,0,0,0,0,0,0,0,0,3.7648,3.7651,0,3.7912,3.7915,3.7918,3.796,3.7958,3.7956,3.7954,3.8224,3.8233,3.8243,0,0,0,0,0,0,0,0,0,0,0,0,0,3.7179,3.7188,3.7648,3.7651,3.7654,3.7911,3.7915,3.7919,3.7961,3.7958,3.7955,3.7952,3.8221,3.8232,3.8243,0,0,0,0,0,0,0,0,0,0,0,0,0,3.7407,3.7191,3.7647,3.7706,3.7714,3.7911,3.7915,3.792,3.7961,3.7958,3.7954,3.7951,3.8217,3.8231,3.8245,3.8401,0,0,3.8288,3.8294,0,0,0,0,0,0,0,0,3.7394,3.7424,3.7694,3.7703,3.7712,3.79,3.7849,3.8081,3.7962,3.7868,3.7953,3.7949,3.8119,3.8141,3.8198,3.8414,3.8425,3.8289,3.8298,3.8304,3.8308,0,0,0,0,0,0,0,3.7378,3.7413,3.7752,3.7698,3.7709,3.7719,3.7748,3.7893,3.8009,3.7876,3.7879,3.791,3.8123,3.8184,3.8205,3.8429,3.8289,3.8301,3.831,3.8315,3.8785,3.8789,0,0,0,0,0,0,3.7352,3.74,3.7744,3.776,3.7541,3.7731,3.7763,3.7843,3.8008,3.803,3.7913,3.7911,3.8162,3.8188,3.8214,3.8408,3.8303,3.8317,3.8325,3.8781,3.8786,3.879,0,0,0,0,0,0,3.7342,3.7382,3.7733,3.7581,3.7627,3.7742,3.7832,3.785,3.7911,3.8036,3.8057,3.7954,3.816,3.8195,3.8354,3.8418,3.8323,3.8336,3.8776,3.8783,3.8788,3.8796,0,0,0,0,0,0,3.7328,3.7378,3.7439,3.7582,3.7634,3.7869,3.7836,3.7858,3.7935,3.7936,3.808,3.8101,3.816,3.8333,3.8368,3.8436,3.8347,3.8771,3.8779,3.8786,3.8791,3.8802,3.8811,0,0,0,0,0,3.7311,3.7431,3.7442,3.7483,3.7713,3.7872,3.7902,3.7968,3.794,3.8002,3.8082,3.8096,3.8405,3.8349,3.8389,3.8462,3.8767,3.8777,3.8786,3.8786,3.88,3.8811,0,0,0,0,0,0,3.7293,3.7451,3.7465,3.7634,3.774,3.7879,3.796,3.798,3.8096,3.8091,3.8168,3.82,3.8356,3.8424,3.8359,3.8621,3.8584,3.8601,3.8571,3.8585,3.8594,3.8575,3.8358,0,0,0,0,0,3.7308,3.7425,3.7556,3.7693,3.7745,3.7843,3.7915,3.7956,3.8069,3.8113,3.8205,3.8313,3.8435,3.8513,3.8632,3.88,3.8832,3.887,3.888,3.8888,3.8903,3.8997,3.9015,3.882,3.882,3.882,0,0,3.7342,3.7443,3.7512,3.7692,3.7779,3.7897,3.788,3.8007,3.8096,3.8133,3.8289,3.836,3.8485,3.865,3.8727,3.8712,3.8963,3.8899,3.8905,3.8916,3.9008,3.9026,3.9043,3.8827,3.8826,3.8825,0,0,3.7464,3.7552,3.7676,3.7762,3.7893,3.7957,3.7986,3.8123,3.8172,3.8329,3.8359,3.8466,3.8673,3.8762,3.8834,3.8987,3.9005,3.9023,3.9078,3.9169,3.9184,3.9198,3.9253,3.9272,3.9037,3.9037,3.9037,0,3.749,3.767,3.7737,3.7862,3.7941,3.7979,3.8104,3.8185,3.8348,3.8401,3.8381,3.8642,3.8729,3.8915,3.8952,3.9009,3.9045,3.9008,3.9176,3.9191,3.9205,3.9259,3.9279,3.9039,3.9039,3.9039,3.9038,0,3.7695,3.782,3.7904,3.806,3.8148,3.8272,3.8357,3.8438,3.8471,3.8537,3.8697,3.8802,3.8943,3.8989,3.9023,3.918,3.9167,3.9161,3.9126,3.9224,3.9276,3.9297,3.9041,3.9041,3.904,3.904,0,0,3.7816,3.8005,3.8035,3.8107,3.8253,3.835,3.8476,3.8613,3.8681,3.8791,3.8899,3.9073,3.9068,3.9149,3.9193,3.9272,3.9388,3.9257,3.9261,3.9278,3.9568,3.9572,3.9595,3.9399,3.9404,3.9407,3.9557,0,3.7956,3.8183,3.8245,3.8437,3.8552,3.8589,3.8699,3.88,3.8864,3.8972,3.9042,3.9165,3.9149,3.9198,3.9278,3.9357,3.9447,3.9347,3.9501,3.9506,3.947,3.9622,3.9628,3.9765,3.9578,3.9581,3.9584,0,3.8151,3.8264,3.8467,3.8598,3.8649,3.8747,3.8877,3.8979,3.9094,3.9135,3.9225,3.9261,3.9394,3.935,3.9533,3.9463,3.953,3.9577,3.9584,3.9603,3.9552,3.9645,3.981,3.9831,3.9616,3.9614,3.9611,0,3.8219,3.8423,3.8571,3.863,3.8786,3.8854,3.8922,3.9034,3.9112,3.9225,3.9277,3.9404,3.9474,3.9571,3.964,3.9602,3.9818,3.978,3.9856,3.9854,3.9902,3.9898,4.008,3.9942,3.9941,3.9941,3.9941,0,3.837,3.8493,3.8603,3.8694,3.8833,3.8903,3.9038,3.9107,3.9206,3.9311,3.935,3.9447,3.9532,3.9641,3.9696,3.984,3.9871,3.9908,3.9921,3.9905,3.9901,3.9951,3.9944,3.9947,3.9945,3.9944,3.9943,0,3.8471,3.8549,3.8713,3.8847,3.8883,3.8979,3.9094,3.9183,3.9248,3.938,3.9415,3.9517,3.9647,3.9725,3.989,3.9926,4.0085,4.0094,4.0047,4.0053,4.0126,4.0118,4.0348,4.0382,4.0219,4.022,4.0222,0,3.8563,3.8658,3.8802,3.8875,3.8944,3.9061,3.914,3.9212,3.9294,3.9431,3.9504,3.9636,3.9746,3.9952,4.0041,4.0166,4.0179,4.0251,4.0199,4.018,4.0182,4.0176,4.0186,4.026,4.0262,4.0263,4.0264,0,3.8718,3.8752,3.8865,3.8993,3.9086,3.919,3.9293,3.935,3.944,3.9529,3.9662,3.9747,3.9915,4.0046,4.0179,4.0249,4.0272,4.0279,4.0304,4.029,4.0259,4.0277,4.0072,4.0274,4.0273,4.0273,4.0272,4.0272,3.8818,3.8905,3.9019,3.9144,3.9229,3.9324,3.9415,3.949,3.9603,3.9745,3.978,3.992,4.0031,4.0213,4.0285,4.0395,4.0384,4.0419,4.0429,4.0437,4.0439,4.0239,4.042,4.0419,4.0419,4.0419,4.0419,0,3.8976,3.9051,3.9165,3.9308,3.9406,3.9418,3.9532,3.9614,3.9736,3.9839,3.9946,4.0098,4.0225,4.0323,4.0453,4.0522,4.0536,4.0554,4.055,4.0566,4.0441,4.0408,4.0541,4.054,4.054,4.054,4.054,4.054,3.907,3.9217,3.9264,3.9453,3.9527,3.9665,3.9729,3.9817,3.9899,4.0068,4.0173,4.0236,4.0336,4.0474,4.059,4.0616,4.0662,4.0679,4.0706,4.0588,4.0575,4.0562,4.0531,4.0688,4.0688,4.0822,4.0823,4.0824]}]]